Weather History for KBLU - April, 2013

Change the Weather History Date:

Saturday, April 27, 2013

  Actual Average Record
Temperature  
Mean Temperature 64 °F -  
Max Temperature 71 °F - - ()
Min Temperature 59 °F - - ()
Growing Degree Days 14 (Base 50)    
Moisture  
Dew Point 30 °F    
Average Humidity 28    
Maximum Humidity 35    
Minimum Humidity 21    
Precipitation  
Precipitation 0.00 in - - ()
Sea Level Pressure  
Sea Level Pressure 30.10 in    
Wind  
Wind Speed 5 mph (North)    
Max Wind Speed 10 mph    
Max Gust Speed 16 mph    
Visibility 10 miles    
Events      
T = Trace of Precipitation, MM = Missing Value Source: NWS Daily Summary

Daily Weather History Graph

Daily Weather History Graph

Search for Another Location

Airport or City:

Trip Planner

Search our weather history database for the weather conditions in past years. The results will help you decide how hot, cold, wet, or windy it might be!

Date:

Astronomy

Apr. 27, 2013 Rise Set
Actual Time 6:08 AM PDT 7:52 PM PDT
Civil Twilight 5:40 AM PDT 8:21 PM PDT
Nautical Twilight 5:05 AM PDT 8:56 PM PDT
Astronomical Twilight 4:28 AM PDT 9:33 PM PDT
Moon 10:26 PM PDT (4/27) 7:32 AM PDT (4/27)
Length of Visible Light 14h 41m
Length of Day
13h 43m
Waning Gibbous, 95% of the Moon is Illuminated
Apr 27
Waning Gibbous
May 2
Last Quarter
May 9
New
May 17
First Quarter
May 24
Full

Hourly Weather History & Observations

Time (PDT) Temp. Dew Point Humidity Pressure Visibility Wind Dir Wind Speed Gust Speed Precip Events Conditions
12:52 AM 61.0 °F 26.1 °F 26% 30.12 in 10.0 mi NE 6.9 mph - N/A   Clear
1:52 AM 61.0 °F 28.9 °F 30% 30.10 in 10.0 mi NE 6.9 mph - N/A   Clear
2:52 AM 61.0 °F 28.0 °F 29% 30.09 in 10.0 mi NE 4.6 mph - N/A   Clear
3:52 AM 62.1 °F 27.0 °F 26% 30.08 in 10.0 mi NE 5.8 mph - N/A   Clear
4:52 AM 59.0 °F 30.0 °F 33% 30.10 in 10.0 mi Calm Calm - N/A   Clear
5:52 AM 60.1 °F 28.9 °F 31% 30.10 in 10.0 mi West 3.5 mph - N/A   Clear
6:52 AM 59.0 °F 30.9 °F 35% 30.12 in 10.0 mi East 3.5 mph - N/A   Clear
7:52 AM 62.1 °F 30.9 °F 31% 30.14 in 10.0 mi Calm Calm - N/A   Clear
8:52 AM 64.0 °F 30.9 °F 29% 30.15 in 10.0 mi SSW 4.6 mph - N/A   Clear
9:52 AM 66.0 °F 30.9 °F 27% 30.14 in 10.0 mi Variable 3.5 mph - N/A   Clear
10:52 AM 68.0 °F 30.9 °F 25% 30.14 in 10.0 mi SW 3.5 mph - N/A   Clear
11:52 AM 68.0 °F 26.1 °F 21% 30.14 in 10.0 mi West 5.8 mph - N/A   Clear
12:52 PM 70.0 °F 30.0 °F 23% 30.12 in 10.0 mi West 6.9 mph - N/A   Clear
1:52 PM 69.1 °F 28.9 °F 22% 30.12 in 10.0 mi SW 10.4 mph 16.1 mph N/A   Clear
2:52 PM 70.0 °F 34.0 °F 27% 30.09 in 10.0 mi West 9.2 mph - N/A   Clear
3:52 PM 69.1 °F 32.0 °F 25% 30.08 in 10.0 mi SW 9.2 mph - N/A   Clear
4:52 PM 69.1 °F 28.9 °F 22% 30.08 in 10.0 mi West 5.8 mph - N/A   Clear
5:52 PM 66.9 °F 28.0 °F 23% 30.07 in 10.0 mi Variable 4.6 mph - N/A   Clear
6:52 PM 66.0 °F 32.0 °F 28% 30.07 in 10.0 mi Variable 4.6 mph - N/A   Clear
7:52 PM 62.1 °F 34.0 °F 35% 30.07 in 10.0 mi Calm Calm - N/A   Clear
8:52 PM 61.0 °F 33.1 °F 35% 30.06 in 10.0 mi ENE 3.5 mph - N/A   Clear
9:52 PM 60.1 °F 32.0 °F 35% 30.06 in 10.0 mi ENE 4.6 mph - N/A   Clear
10:52 PM 60.1 °F 30.9 °F 33% 30.05 in 10.0 mi NE 4.6 mph - N/A   Clear
11:52 PM 60.1 °F 28.9 °F 31% 30.03 in 10.0 mi NE 5.8 mph - N/A   Clear